Year,Month,Day,Hour,Minute,Value (Times are PST for temperature in C)
2013,03,25,00,00,5.50
2013,03,25,00,01,5.40
2013,03,25,00,02,5.40
2013,03,25,00,03,5.40
2013,03,25,00,04,5.40
2013,03,25,00,05,5.40
2013,03,25,00,06,5.40
2013,03,25,00,07,5.30
2013,03,25,00,08,5.30
2013,03,25,00,09,5.30
2013,03,25,00,10,5.30
2013,03,25,00,11,5.30
2013,03,25,00,12,5.30
2013,03,25,00,13,5.30
2013,03,25,00,14,5.30
2013,03,25,00,15,5.30
2013,03,25,00,16,5.30
2013,03,25,00,17,5.20
2013,03,25,00,18,5.20
2013,03,25,00,19,5.20
2013,03,25,00,20,5.20
2013,03,25,00,21,5.20
2013,03,25,00,22,5.20
2013,03,25,00,23,5.20
2013,03,25,00,24,5.20
2013,03,25,00,25,5.20
2013,03,25,00,26,5.20
2013,03,25,00,27,5.20
2013,03,25,00,28,5.20
2013,03,25,00,29,5.20
2013,03,25,00,30,5.30
2013,03,25,00,31,5.30
2013,03,25,00,32,5.30
2013,03,25,00,33,5.30
2013,03,25,00,34,5.30
2013,03,25,00,35,5.30
2013,03,25,00,36,5.30
2013,03,25,00,37,5.30
2013,03,25,00,38,5.20
2013,03,25,00,39,5.20
2013,03,25,00,40,5.20
2013,03,25,00,41,5.20
2013,03,25,00,42,5.20
2013,03,25,00,43,5.20
2013,03,25,00,44,5.20
2013,03,25,00,45,5.20
2013,03,25,00,46,5.20
2013,03,25,00,47,5.20
2013,03,25,00,48,5.20
2013,03,25,00,49,5.10
2013,03,25,00,50,5.10
2013,03,25,00,51,5.10
2013,03,25,00,52,5.10
2013,03,25,00,53,5.10
2013,03,25,00,54,5.10
2013,03,25,00,55,5.10
2013,03,25,00,56,5.10
2013,03,25,00,57,5.10
2013,03,25,00,58,5.10
2013,03,25,00,59,5.10
2013,03,25,01,00,5.00
2013,03,25,01,01,5.00
2013,03,25,01,02,5.00
2013,03,25,01,03,5.00
2013,03,25,01,04,4.90
2013,03,25,01,05,4.90
2013,03,25,01,06,4.90
2013,03,25,01,07,4.90
2013,03,25,01,08,4.90
2013,03,25,01,09,4.90
2013,03,25,01,10,4.80
2013,03,25,01,11,4.80
2013,03,25,01,12,4.80
2013,03,25,01,13,4.80
2013,03,25,01,14,4.80
2013,03,25,01,15,4.80
2013,03,25,01,16,4.80
2013,03,25,01,17,4.80
2013,03,25,01,18,4.80
2013,03,25,01,19,4.70
2013,03,25,01,20,4.70
2013,03,25,01,21,4.70
2013,03,25,01,22,4.70
2013,03,25,01,23,4.70
2013,03,25,01,24,4.70
2013,03,25,01,25,4.70
2013,03,25,01,26,4.70
2013,03,25,01,27,4.70
2013,03,25,01,28,4.70
2013,03,25,01,29,4.60
2013,03,25,01,30,4.60
2013,03,25,01,31,4.60
2013,03,25,01,32,4.60
2013,03,25,01,33,4.60
2013,03,25,01,34,4.60
2013,03,25,01,35,4.60
2013,03,25,01,36,4.50
2013,03,25,01,37,4.50
2013,03,25,01,38,4.50
2013,03,25,01,39,4.50
2013,03,25,01,40,4.40
2013,03,25,01,41,4.40
2013,03,25,01,42,4.40
2013,03,25,01,43,4.40
2013,03,25,01,44,4.40
2013,03,25,01,45,4.40
2013,03,25,01,46,4.40
2013,03,25,01,47,4.30
2013,03,25,01,48,4.30
2013,03,25,01,49,4.30
2013,03,25,01,50,4.30
2013,03,25,01,51,4.20
2013,03,25,01,52,4.20
2013,03,25,01,53,4.20
2013,03,25,01,54,4.20
2013,03,25,01,55,4.10
2013,03,25,01,56,4.10
2013,03,25,01,57,4.00
2013,03,25,01,58,4.00
2013,03,25,01,59,3.90
2013,03,25,02,00,3.90
2013,03,25,02,01,3.90
2013,03,25,02,02,3.80
2013,03,25,02,03,3.80
2013,03,25,02,04,3.80
2013,03,25,02,05,3.80
2013,03,25,02,06,3.70
2013,03,25,02,07,3.70
2013,03,25,02,08,3.70
2013,03,25,02,09,3.70
2013,03,25,02,10,3.60
2013,03,25,02,11,3.60
2013,03,25,02,12,3.60
2013,03,25,02,13,3.60
2013,03,25,02,14,3.60
2013,03,25,02,15,3.60
2013,03,25,02,16,3.60
2013,03,25,02,17,3.60
2013,03,25,02,18,3.60
2013,03,25,02,19,3.60
2013,03,25,02,20,3.60
2013,03,25,02,21,3.60
2013,03,25,02,22,3.60
2013,03,25,02,23,3.70
2013,03,25,02,24,3.70
2013,03,25,02,25,3.70
2013,03,25,02,26,3.70
2013,03,25,02,27,3.80
2013,03,25,02,28,3.80
2013,03,25,02,29,3.80
2013,03,25,02,30,3.90
2013,03,25,02,31,3.90
2013,03,25,02,32,3.90
2013,03,25,02,33,4.00
2013,03,25,02,34,4.00
2013,03,25,02,35,4.00
2013,03,25,02,36,4.10
2013,03,25,02,37,4.10
2013,03,25,02,38,4.10
2013,03,25,02,39,4.10
2013,03,25,02,40,4.10
2013,03,25,02,41,4.20
2013,03,25,02,42,4.20
2013,03,25,02,43,4.20
2013,03,25,02,44,4.20
2013,03,25,02,45,4.20
2013,03,25,02,46,4.20
2013,03,25,02,47,4.30
2013,03,25,02,48,4.30
2013,03,25,02,49,4.30
2013,03,25,02,50,4.30
2013,03,25,02,51,4.30
2013,03,25,02,52,4.30
2013,03,25,02,53,4.30
2013,03,25,02,54,4.30
2013,03,25,02,55,4.30
2013,03,25,02,56,4.40
2013,03,25,02,57,4.40
2013,03,25,02,58,4.40
2013,03,25,02,59,4.40
2013,03,25,03,00,4.40
2013,03,25,03,01,4.40
2013,03,25,03,02,4.40
2013,03,25,03,03,4.40
2013,03,25,03,04,4.40
2013,03,25,03,05,4.40
2013,03,25,03,06,4.40
2013,03,25,03,07,4.40
2013,03,25,03,08,4.40
2013,03,25,03,09,4.40
2013,03,25,03,10,4.40
2013,03,25,03,11,4.40
2013,03,25,03,12,4.40
2013,03,25,03,13,4.40
2013,03,25,03,14,4.40
2013,03,25,03,15,4.40
2013,03,25,03,16,4.40
2013,03,25,03,17,4.50
2013,03,25,03,18,4.50
2013,03,25,03,19,4.50
2013,03,25,03,20,4.50
2013,03,25,03,21,4.60
2013,03,25,03,22,4.60
2013,03,25,03,23,4.60
2013,03,25,03,24,4.60
2013,03,25,03,25,4.60
2013,03,25,03,26,4.60
2013,03,25,03,27,4.60
2013,03,25,03,28,4.60
2013,03,25,03,29,4.60
2013,03,25,03,30,4.60
2013,03,25,03,31,4.60
2013,03,25,03,32,4.60
2013,03,25,03,33,4.60
2013,03,25,03,34,4.60
2013,03,25,03,35,4.60
2013,03,25,03,36,4.60
2013,03,25,03,37,4.60
2013,03,25,03,38,4.60
2013,03,25,03,39,4.60
2013,03,25,03,40,4.60
2013,03,25,03,41,4.60
2013,03,25,03,42,4.60
2013,03,25,03,43,4.60
2013,03,25,03,44,4.60
2013,03,25,03,45,4.70
2013,03,25,03,46,4.70
2013,03,25,03,47,4.70
2013,03,25,03,48,4.60
2013,03,25,03,49,4.70
2013,03,25,03,50,4.70
2013,03,25,03,51,4.70
2013,03,25,03,52,4.70
2013,03,25,03,53,4.60
2013,03,25,03,54,4.60
2013,03,25,03,55,4.60
2013,03,25,03,56,4.60
2013,03,25,03,57,4.60
2013,03,25,03,58,4.60
2013,03,25,03,59,4.60
2013,03,25,04,00,4.60
2013,03,25,04,01,4.60
2013,03,25,04,02,4.60
2013,03,25,04,03,4.60
2013,03,25,04,04,4.60
2013,03,25,04,05,4.60
2013,03,25,04,06,4.60
2013,03,25,04,07,4.50
2013,03,25,04,08,4.50
2013,03,25,04,09,4.50
2013,03,25,04,10,4.50
2013,03,25,04,11,4.50
2013,03,25,04,12,4.40
2013,03,25,04,13,4.40
2013,03,25,04,14,4.40
2013,03,25,04,15,4.40
2013,03,25,04,16,4.40
2013,03,25,04,17,4.40
2013,03,25,04,18,4.30
2013,03,25,04,19,4.30
2013,03,25,04,20,4.30
2013,03,25,04,21,4.30
2013,03,25,04,22,4.30
2013,03,25,04,23,4.30
2013,03,25,04,24,4.30
2013,03,25,04,25,4.30
2013,03,25,04,26,4.30
2013,03,25,04,27,4.20
2013,03,25,04,28,4.20
2013,03,25,04,29,4.20
2013,03,25,04,30,4.20
2013,03,25,04,31,4.10
2013,03,25,04,32,4.10
2013,03,25,04,33,4.10
2013,03,25,04,34,4.10
2013,03,25,04,35,4.00
2013,03,25,04,36,4.00
2013,03,25,04,37,3.90
2013,03,25,04,38,3.90
2013,03,25,04,39,3.90
2013,03,25,04,40,3.80
2013,03,25,04,41,3.80
2013,03,25,04,42,3.80
2013,03,25,04,43,3.70
2013,03,25,04,44,3.70
2013,03,25,04,45,3.70
2013,03,25,04,46,3.70
2013,03,25,04,47,3.60
2013,03,25,04,48,3.60
2013,03,25,04,49,3.60
2013,03,25,04,50,3.50
2013,03,25,04,51,3.50
2013,03,25,04,52,3.50
2013,03,25,04,53,3.40
2013,03,25,04,54,3.40
2013,03,25,04,55,3.40
2013,03,25,04,56,3.40
2013,03,25,04,57,3.40
2013,03,25,04,58,3.40
2013,03,25,04,59,3.40
2013,03,25,05,00,3.40
2013,03,25,05,01,3.30
2013,03,25,05,02,3.30
2013,03,25,05,03,3.30
2013,03,25,05,04,3.30
2013,03,25,05,05,3.30
2013,03,25,05,06,3.30
2013,03,25,05,07,3.20
2013,03,25,05,08,3.20
2013,03,25,05,09,3.20
2013,03,25,05,10,3.20
2013,03,25,05,11,3.20
2013,03,25,05,12,3.20
2013,03,25,05,13,3.20
2013,03,25,05,14,3.10
2013,03,25,05,15,3.10
2013,03,25,05,16,3.10
2013,03,25,05,17,3.10
2013,03,25,05,18,3.10
2013,03,25,05,19,3.10
2013,03,25,05,20,3.10
2013,03,25,05,21,3.10
2013,03,25,05,22,3.10
2013,03,25,05,23,3.10
2013,03,25,05,24,3.10
2013,03,25,05,25,3.00
2013,03,25,05,26,3.10
2013,03,25,05,27,3.10
2013,03,25,05,28,3.10
2013,03,25,05,29,3.10
2013,03,25,05,30,3.00
2013,03,25,05,31,3.00
2013,03,25,05,32,3.00
2013,03,25,05,33,3.00
2013,03,25,05,34,3.00
2013,03,25,05,35,3.00
2013,03,25,05,36,3.00
2013,03,25,05,37,3.00
2013,03,25,05,38,3.00
2013,03,25,05,39,2.90
2013,03,25,05,40,2.90
2013,03,25,05,41,2.90
2013,03,25,05,42,2.90
2013,03,25,05,43,2.90
2013,03,25,05,44,2.90
2013,03,25,05,45,2.90
2013,03,25,05,46,2.80
2013,03,25,05,47,2.80
2013,03,25,05,48,2.80
2013,03,25,05,49,2.80
2013,03,25,05,50,2.80
2013,03,25,05,51,2.90
2013,03,25,05,52,2.80
2013,03,25,05,53,2.90
2013,03,25,05,54,2.90
2013,03,25,05,55,2.80
2013,03,25,05,56,2.80
2013,03,25,05,57,2.80
2013,03,25,05,58,2.80
2013,03,25,05,59,2.80
2013,03,25,06,00,2.80
2013,03,25,06,01,2.80
2013,03,25,06,02,2.80
2013,03,25,06,03,2.80
2013,03,25,06,04,2.80
2013,03,25,06,05,2.80
2013,03,25,06,06,2.70
2013,03,25,06,07,2.70
2013,03,25,06,08,2.70
2013,03,25,06,09,2.70
2013,03,25,06,10,2.70
2013,03,25,06,11,2.70
2013,03,25,06,12,2.70
2013,03,25,06,13,2.70
2013,03,25,06,14,2.70
2013,03,25,06,15,2.70
2013,03,25,06,16,2.70
2013,03,25,06,17,2.70
2013,03,25,06,18,2.70
2013,03,25,06,19,2.70
2013,03,25,06,20,2.70
2013,03,25,06,21,2.70
2013,03,25,06,22,2.70
2013,03,25,06,23,2.70
2013,03,25,06,24,2.70
2013,03,25,06,25,2.70
2013,03,25,06,26,2.60
2013,03,25,06,27,2.60
2013,03,25,06,28,2.60
2013,03,25,06,29,2.60
2013,03,25,06,30,2.60
2013,03,25,06,31,2.60
2013,03,25,06,32,2.50
2013,03,25,06,33,2.50
2013,03,25,06,34,2.50
2013,03,25,06,35,2.40
2013,03,25,06,36,2.40
2013,03,25,06,37,2.40
2013,03,25,06,38,2.30
2013,03,25,06,39,2.30
2013,03,25,06,40,2.30
2013,03,25,06,41,2.20
2013,03,25,06,42,2.20
2013,03,25,06,43,2.10
2013,03,25,06,44,2.10
2013,03,25,06,45,2.00
2013,03,25,06,46,2.00
2013,03,25,06,47,1.90
2013,03,25,06,48,1.90
2013,03,25,06,49,1.90
2013,03,25,06,50,1.90
2013,03,25,06,51,2.00
2013,03,25,06,52,2.10
2013,03,25,06,53,2.10
2013,03,25,06,54,2.20
2013,03,25,06,55,2.20
2013,03,25,06,56,2.20
2013,03,25,06,57,2.30
2013,03,25,06,58,2.20
2013,03,25,06,59,2.20
2013,03,25,07,00,2.20
2013,03,25,07,01,2.10
2013,03,25,07,02,2.10
2013,03,25,07,03,2.00
2013,03,25,07,04,1.90
2013,03,25,07,05,1.90
2013,03,25,07,06,1.80
2013,03,25,07,07,1.80
2013,03,25,07,08,1.80
2013,03,25,07,09,1.70
2013,03,25,07,10,1.70
2013,03,25,07,11,1.70
2013,03,25,07,12,1.60
2013,03,25,07,13,1.60
2013,03,25,07,14,1.50
2013,03,25,07,15,1.50
2013,03,25,07,16,1.50
2013,03,25,07,17,1.40
2013,03,25,07,18,1.40
2013,03,25,07,19,1.40
2013,03,25,07,20,1.40
2013,03,25,07,21,1.40
2013,03,25,07,22,1.30
2013,03,25,07,23,1.30
2013,03,25,07,24,1.30
2013,03,25,07,25,1.30
2013,03,25,07,26,1.30
2013,03,25,07,27,1.30
2013,03,25,07,28,1.30
2013,03,25,07,29,1.30
2013,03,25,07,30,1.30
2013,03,25,07,31,1.30
2013,03,25,07,32,1.30
2013,03,25,07,33,1.30
2013,03,25,07,34,1.30
2013,03,25,07,35,1.30
2013,03,25,07,36,1.30
2013,03,25,07,37,1.40
2013,03,25,07,38,1.40
2013,03,25,07,39,1.50
2013,03,25,07,40,1.50
2013,03,25,07,41,1.50
2013,03,25,07,42,1.60
2013,03,25,07,43,1.70
2013,03,25,07,44,1.70
2013,03,25,07,45,1.80
2013,03,25,07,46,1.90
2013,03,25,07,47,1.90
2013,03,25,07,48,2.00
2013,03,25,07,49,2.10
2013,03,25,07,50,2.10
2013,03,25,07,51,2.20
2013,03,25,07,52,2.20
2013,03,25,07,53,2.20
2013,03,25,07,54,2.30
2013,03,25,07,55,2.30
2013,03,25,07,56,2.30
2013,03,25,07,57,2.30
2013,03,25,07,58,2.40
2013,03,25,07,59,2.40
2013,03,25,08,00,2.40
2013,03,25,08,01,2.50
2013,03,25,08,02,2.50
2013,03,25,08,03,2.60
2013,03,25,08,04,2.60
2013,03,25,08,05,2.60
2013,03,25,08,06,2.60
2013,03,25,08,07,2.60
2013,03,25,08,08,2.70
2013,03,25,08,09,2.70
2013,03,25,08,10,2.70
2013,03,25,08,11,2.70
2013,03,25,08,12,2.80
2013,03,25,08,13,2.80
2013,03,25,08,14,2.80
2013,03,25,08,15,2.80
2013,03,25,08,16,2.80
2013,03,25,08,17,2.80
2013,03,25,08,18,2.90
2013,03,25,08,19,2.90
2013,03,25,08,20,2.90
2013,03,25,08,21,2.90
2013,03,25,08,22,3.00
2013,03,25,08,23,3.00
2013,03,25,08,24,3.00
2013,03,25,08,25,3.00
2013,03,25,08,26,3.10
2013,03,25,08,27,3.10
2013,03,25,08,28,3.10
2013,03,25,08,29,3.10
2013,03,25,08,30,3.10
2013,03,25,08,31,3.10
2013,03,25,08,32,3.20
2013,03,25,08,33,3.20
2013,03,25,08,34,3.20
2013,03,25,08,35,3.20
2013,03,25,08,36,3.20
2013,03,25,08,37,3.20
2013,03,25,08,38,3.20
2013,03,25,08,39,3.20
2013,03,25,08,40,3.20
2013,03,25,08,41,3.20
2013,03,25,08,42,3.30
2013,03,25,08,43,3.30
2013,03,25,08,44,3.30
2013,03,25,08,45,3.30
2013,03,25,08,46,3.30
2013,03,25,08,47,3.30
2013,03,25,08,48,3.40
2013,03,25,08,49,3.40
2013,03,25,08,50,3.50
2013,03,25,08,51,3.60
2013,03,25,08,52,3.60
2013,03,25,08,53,3.70
2013,03,25,08,54,3.80
2013,03,25,08,55,3.90
2013,03,25,08,56,4.00
2013,03,25,08,57,4.10
2013,03,25,08,58,4.20
2013,03,25,08,59,4.30
2013,03,25,09,00,4.30
2013,03,25,09,01,4.40
2013,03,25,09,02,4.50
2013,03,25,09,03,4.60
2013,03,25,09,04,4.60
2013,03,25,09,05,4.70
2013,03,25,09,06,4.70
2013,03,25,09,07,4.70
2013,03,25,09,08,4.80
2013,03,25,09,09,4.80
2013,03,25,09,10,4.80
2013,03,25,09,11,4.80
2013,03,25,09,12,4.80
2013,03,25,09,13,4.80
2013,03,25,09,14,4.90
2013,03,25,09,15,4.90
2013,03,25,09,16,4.90
2013,03,25,09,17,4.90
2013,03,25,09,18,5.00
2013,03,25,09,19,5.00
2013,03,25,09,20,5.00
2013,03,25,09,21,5.10
2013,03,25,09,22,5.10
2013,03,25,09,23,5.20
2013,03,25,09,24,5.20
2013,03,25,09,25,5.30
2013,03,25,09,26,5.40
2013,03,25,09,27,5.50
2013,03,25,09,28,5.60
2013,03,25,09,29,5.60
2013,03,25,09,30,5.70
2013,03,25,09,31,5.80
2013,03,25,09,32,5.90
2013,03,25,09,33,6.00
2013,03,25,09,34,6.10
2013,03,25,09,35,6.30
2013,03,25,09,36,6.40
2013,03,25,09,37,6.50
2013,03,25,09,38,6.50
2013,03,25,09,39,6.60
2013,03,25,09,40,6.70
2013,03,25,09,41,6.80
2013,03,25,09,42,7.00
2013,03,25,09,43,7.10
2013,03,25,09,44,7.20
2013,03,25,09,45,7.30
2013,03,25,09,46,7.40
2013,03,25,09,47,7.50
2013,03,25,09,48,7.60
2013,03,25,09,49,7.70
2013,03,25,09,50,7.80
2013,03,25,09,51,7.90
2013,03,25,09,52,8.00
2013,03,25,09,53,8.10
2013,03,25,09,54,8.10
2013,03,25,09,55,8.20
2013,03,25,09,56,8.30
2013,03,25,09,57,8.30
2013,03,25,09,58,8.40
2013,03,25,09,59,8.50
2013,03,25,10,00,8.50
2013,03,25,10,01,8.60
2013,03,25,10,02,8.60
2013,03,25,10,03,8.70
2013,03,25,10,04,8.70
2013,03,25,10,05,8.70
2013,03,25,10,06,8.70
2013,03,25,10,07,8.60
2013,03,25,10,08,8.60
2013,03,25,10,09,8.70
2013,03,25,10,10,8.70
2013,03,25,10,11,8.70
2013,03,25,10,12,8.80
2013,03,25,10,13,8.90
2013,03,25,10,14,8.90
2013,03,25,10,15,9.00
2013,03,25,10,16,9.10
2013,03,25,10,17,9.10
2013,03,25,10,18,9.10
2013,03,25,10,19,9.10
2013,03,25,10,20,9.10
2013,03,25,10,21,9.10
2013,03,25,10,22,9.10
2013,03,25,10,23,9.20
2013,03,25,10,24,9.20
2013,03,25,10,25,9.20
2013,03,25,10,26,9.30
2013,03,25,10,27,9.30
2013,03,25,10,28,9.40
2013,03,25,10,29,9.40
2013,03,25,10,30,9.50
2013,03,25,10,31,9.60
2013,03,25,10,32,9.60
2013,03,25,10,33,9.60
2013,03,25,10,34,9.60
2013,03,25,10,35,9.60
2013,03,25,10,36,9.60
2013,03,25,10,37,9.70
2013,03,25,10,38,9.70
2013,03,25,10,39,9.80
2013,03,25,10,40,9.80
2013,03,25,10,41,9.80
2013,03,25,10,42,9.80
2013,03,25,10,43,9.80
2013,03,25,10,44,9.80
2013,03,25,10,45,9.80
2013,03,25,10,46,9.80
2013,03,25,10,47,9.90
2013,03,25,10,48,9.90
2013,03,25,10,49,9.80
2013,03,25,10,50,9.80
2013,03,25,10,51,9.80
2013,03,25,10,52,9.90
2013,03,25,10,53,9.90
2013,03,25,10,54,10.00
2013,03,25,10,55,10.10
2013,03,25,10,56,10.20
2013,03,25,10,57,10.30
2013,03,25,10,58,10.40
2013,03,25,10,59,10.50
2013,03,25,11,00,10.50
2013,03,25,11,01,10.60
2013,03,25,11,02,10.50
2013,03,25,11,03,10.50
2013,03,25,11,04,10.40
2013,03,25,11,05,10.50
2013,03,25,11,06,10.50
2013,03,25,11,07,10.50
2013,03,25,11,08,10.50
2013,03,25,11,09,10.50
2013,03,25,11,10,10.60
2013,03,25,11,11,10.70
2013,03,25,11,12,10.70
2013,03,25,11,13,10.70
2013,03,25,11,14,10.70
2013,03,25,11,15,10.70
2013,03,25,11,16,10.60
2013,03,25,11,17,10.60
2013,03,25,11,18,10.50
2013,03,25,11,19,10.40
2013,03,25,11,20,10.40
2013,03,25,11,21,10.40
2013,03,25,11,22,10.40
2013,03,25,11,23,10.40
2013,03,25,11,24,10.40
2013,03,25,11,25,10.50
2013,03,25,11,26,10.50
2013,03,25,11,27,10.50
2013,03,25,11,28,10.60
2013,03,25,11,29,10.60
2013,03,25,11,30,10.70
2013,03,25,11,31,10.70
2013,03,25,11,32,10.80
2013,03,25,11,33,10.80
2013,03,25,11,34,10.90
2013,03,25,11,35,10.90
2013,03,25,11,36,10.90
2013,03,25,11,37,10.90
2013,03,25,11,38,10.90
2013,03,25,11,39,10.90
2013,03,25,11,40,10.90
2013,03,25,11,41,10.90
2013,03,25,11,42,10.80
2013,03,25,11,43,10.70
2013,03,25,11,44,10.70
2013,03,25,11,45,10.70
2013,03,25,11,46,10.80
2013,03,25,11,47,10.80
2013,03,25,11,48,10.90
2013,03,25,11,49,10.90
2013,03,25,11,50,10.90
2013,03,25,11,51,10.90
2013,03,25,11,52,10.90
2013,03,25,11,53,10.90
2013,03,25,11,54,11.00
2013,03,25,11,55,11.10
2013,03,25,11,56,11.10
2013,03,25,11,57,11.10
2013,03,25,11,58,11.20
2013,03,25,11,59,11.20
2013,03,25,12,00,11.20
2013,03,25,12,01,11.30
2013,03,25,12,02,11.30
2013,03,25,12,03,11.20
2013,03,25,12,04,11.20
2013,03,25,12,05,11.20
2013,03,25,12,06,11.30
2013,03,25,12,07,11.30
2013,03,25,12,08,11.30
2013,03,25,12,09,11.30
2013,03,25,12,10,11.30
2013,03,25,12,11,11.30
2013,03,25,12,12,11.30
2013,03,25,12,13,11.30
2013,03,25,12,14,11.30
2013,03,25,12,15,11.20
2013,03,25,12,16,11.20
2013,03,25,12,17,11.20
2013,03,25,12,18,11.20
2013,03,25,12,19,11.30
2013,03,25,12,20,11.30
2013,03,25,12,21,11.20
2013,03,25,12,22,11.10
2013,03,25,12,23,11.00
2013,03,25,12,24,10.90
2013,03,25,12,25,10.90
2013,03,25,12,26,10.90
2013,03,25,12,27,10.90
2013,03,25,12,28,11.00
2013,03,25,12,29,11.00
2013,03,25,12,30,11.10
2013,03,25,12,31,11.20
2013,03,25,12,32,11.20
2013,03,25,12,33,11.40
2013,03,25,12,34,11.50
2013,03,25,12,35,11.50
2013,03,25,12,36,11.50
2013,03,25,12,37,11.40
2013,03,25,12,38,11.50
2013,03,25,12,39,11.60
2013,03,25,12,40,11.70
2013,03,25,12,41,11.70
2013,03,25,12,42,11.80
2013,03,25,12,43,11.90
2013,03,25,12,44,11.90
2013,03,25,12,45,12.00
2013,03,25,12,46,12.00
2013,03,25,12,47,12.10
2013,03,25,12,48,12.20
2013,03,25,12,49,12.20
2013,03,25,12,50,12.20
2013,03,25,12,51,12.20
2013,03,25,12,52,12.10
2013,03,25,12,53,12.00
2013,03,25,12,54,11.90
2013,03,25,12,55,11.90
2013,03,25,12,56,11.80
2013,03,25,12,57,11.80
2013,03,25,12,58,11.80
2013,03,25,12,59,11.70
2013,03,25,13,00,11.70
2013,03,25,13,01,11.70
2013,03,25,13,02,11.70
2013,03,25,13,03,11.80
2013,03,25,13,04,11.80
2013,03,25,13,05,11.80
2013,03,25,13,06,11.90
2013,03,25,13,07,12.00
2013,03,25,13,08,12.00
2013,03,25,13,09,12.00
2013,03,25,13,10,12.00
2013,03,25,13,11,12.00
2013,03,25,13,12,12.00
2013,03,25,13,13,12.10
2013,03,25,13,14,12.10
2013,03,25,13,15,12.10
2013,03,25,13,16,12.10
2013,03,25,13,17,12.00
2013,03,25,13,18,12.00
2013,03,25,13,19,12.10
2013,03,25,13,20,12.10
2013,03,25,13,21,12.20
2013,03,25,13,22,12.30
2013,03,25,13,23,12.30
2013,03,25,13,24,12.30
2013,03,25,13,25,12.30
2013,03,25,13,26,12.30
2013,03,25,13,27,12.40
2013,03,25,13,28,12.50
2013,03,25,13,29,12.50
2013,03,25,13,30,12.60
2013,03,25,13,31,12.60
2013,03,25,13,32,12.50
2013,03,25,13,33,12.60
2013,03,25,13,34,12.50
2013,03,25,13,35,12.50
2013,03,25,13,36,12.40
2013,03,25,13,37,12.30
2013,03,25,13,38,12.30
2013,03,25,13,39,12.30
2013,03,25,13,40,12.30
2013,03,25,13,41,12.30
2013,03,25,13,42,12.30
2013,03,25,13,43,12.30
2013,03,25,13,44,12.30
2013,03,25,13,45,12.30
2013,03,25,13,46,12.30
2013,03,25,13,47,12.30
2013,03,25,13,48,12.30
2013,03,25,13,49,12.40
2013,03,25,13,50,12.50
2013,03,25,13,51,12.60
2013,03,25,13,52,12.60
2013,03,25,13,53,12.70
2013,03,25,13,54,12.70
2013,03,25,13,55,12.70
2013,03,25,13,56,12.70
2013,03,25,13,57,12.70
2013,03,25,13,58,12.70
2013,03,25,13,59,12.70
2013,03,25,14,00,12.70
2013,03,25,14,01,12.60
2013,03,25,14,02,12.50
2013,03,25,14,03,12.50
2013,03,25,14,04,12.50
2013,03,25,14,05,12.60
2013,03,25,14,06,12.70
2013,03,25,14,07,12.70
2013,03,25,14,08,12.80
2013,03,25,14,09,12.80
2013,03,25,14,10,12.80
2013,03,25,14,11,12.80
2013,03,25,14,12,12.80
2013,03,25,14,13,12.70
2013,03,25,14,14,12.60
2013,03,25,14,15,12.60
2013,03,25,14,16,12.60
2013,03,25,14,17,12.60
2013,03,25,14,18,12.60
2013,03,25,14,19,12.60
2013,03,25,14,20,12.70
2013,03,25,14,21,12.70
2013,03,25,14,22,12.70
2013,03,25,14,23,12.70
2013,03,25,14,24,12.80
2013,03,25,14,25,12.80
2013,03,25,14,26,12.90
2013,03,25,14,27,12.90
2013,03,25,14,28,12.90
2013,03,25,14,29,12.90
2013,03,25,14,30,12.90
2013,03,25,14,31,12.90
2013,03,25,14,32,12.90
2013,03,25,14,33,13.00
2013,03,25,14,34,13.00
2013,03,25,14,35,13.00
2013,03,25,14,36,13.00
2013,03,25,14,37,13.00
2013,03,25,14,38,13.00
2013,03,25,14,39,12.90
2013,03,25,14,40,12.90
2013,03,25,14,41,13.00
2013,03,25,14,42,13.00
2013,03,25,14,43,13.00
2013,03,25,14,44,13.00
2013,03,25,14,45,13.10
2013,03,25,14,46,13.00
2013,03,25,14,47,13.00
2013,03,25,14,48,13.00
2013,03,25,14,49,12.90
2013,03,25,14,50,13.00
2013,03,25,14,51,13.00
2013,03,25,14,52,13.00
2013,03,25,14,53,13.00
2013,03,25,14,54,13.10
2013,03,25,14,55,13.10
2013,03,25,14,56,13.10
2013,03,25,14,57,13.10
2013,03,25,14,58,13.00
2013,03,25,14,59,13.00
2013,03,25,15,00,13.10
2013,03,25,15,01,13.10
2013,03,25,15,02,13.10
2013,03,25,15,03,13.10
2013,03,25,15,04,13.10
2013,03,25,15,05,13.20
2013,03,25,15,06,13.20
2013,03,25,15,07,13.10
2013,03,25,15,08,13.00
2013,03,25,15,09,12.90
2013,03,25,15,10,12.90
2013,03,25,15,11,12.90
2013,03,25,15,12,12.90
2013,03,25,15,13,12.80
2013,03,25,15,14,12.80
2013,03,25,15,15,12.90
2013,03,25,15,16,12.90
2013,03,25,15,17,13.00
2013,03,25,15,18,13.10
2013,03,25,15,19,13.10
2013,03,25,15,20,13.20
2013,03,25,15,21,13.20
2013,03,25,15,22,13.20
2013,03,25,15,23,13.30
2013,03,25,15,24,13.30
2013,03,25,15,25,13.30
2013,03,25,15,26,13.50
2013,03,25,15,27,13.60
2013,03,25,15,28,13.70
2013,03,25,15,29,13.90
2013,03,25,15,30,14.00
2013,03,25,15,31,14.00
2013,03,25,15,32,14.00
2013,03,25,15,33,14.00
2013,03,25,15,34,13.90
2013,03,25,15,35,13.90
2013,03,25,15,36,13.90
2013,03,25,15,37,14.00
2013,03,25,15,38,14.00
2013,03,25,15,39,14.00
2013,03,25,15,40,13.90
2013,03,25,15,41,13.80
2013,03,25,15,42,13.70
2013,03,25,15,43,13.60
2013,03,25,15,44,13.50
2013,03,25,15,45,13.40
2013,03,25,15,46,13.40
2013,03,25,15,47,13.50
2013,03,25,15,48,13.60
2013,03,25,15,49,13.60
2013,03,25,15,50,13.60
2013,03,25,15,51,13.60
2013,03,25,15,52,13.60
2013,03,25,15,53,13.60
2013,03,25,15,54,13.50
2013,03,25,15,55,13.50
2013,03,25,15,56,13.50
2013,03,25,15,57,13.50
2013,03,25,15,58,13.60
2013,03,25,15,59,13.60
2013,03,25,16,00,13.60
2013,03,25,16,01,13.60
2013,03,25,16,02,13.70
2013,03,25,16,03,13.70
2013,03,25,16,04,13.70
2013,03,25,16,05,13.60
2013,03,25,16,06,13.60
2013,03,25,16,07,13.50
2013,03,25,16,08,13.50
2013,03,25,16,09,13.40
2013,03,25,16,10,13.50
2013,03,25,16,11,13.50
2013,03,25,16,12,13.60
2013,03,25,16,13,13.60
2013,03,25,16,14,13.60
2013,03,25,16,15,13.60
2013,03,25,16,16,13.60
2013,03,25,16,17,13.70
2013,03,25,16,18,13.70
2013,03,25,16,19,13.70
2013,03,25,16,20,13.70
2013,03,25,16,21,13.70
2013,03,25,16,22,13.70
2013,03,25,16,23,13.60
2013,03,25,16,24,13.60
2013,03,25,16,25,13.70
2013,03,25,16,26,13.80
2013,03,25,16,27,13.90
2013,03,25,16,28,14.00
2013,03,25,16,29,14.00
2013,03,25,16,30,14.00
2013,03,25,16,31,13.90
2013,03,25,16,32,13.90
2013,03,25,16,33,13.80
2013,03,25,16,34,13.80
2013,03,25,16,35,13.70
2013,03,25,16,36,13.60
2013,03,25,16,37,13.60
2013,03,25,16,38,13.50
2013,03,25,16,39,13.50
2013,03,25,16,40,13.50
2013,03,25,16,41,13.50
2013,03,25,16,42,13.60
2013,03,25,16,43,13.50
2013,03,25,16,44,13.60
2013,03,25,16,45,13.60
2013,03,25,16,46,13.50
2013,03,25,16,47,13.50
2013,03,25,16,48,13.50
2013,03,25,16,49,13.50
2013,03,25,16,50,13.50
2013,03,25,16,51,13.50
2013,03,25,16,52,13.50
2013,03,25,16,53,13.60
2013,03,25,16,54,13.60
2013,03,25,16,55,13.70
2013,03,25,16,56,13.60
2013,03,25,16,57,13.60
2013,03,25,16,58,13.60
2013,03,25,16,59,13.60
2013,03,25,17,00,13.50
2013,03,25,17,01,13.40
2013,03,25,17,02,13.40
2013,03,25,17,03,13.50
2013,03,25,17,04,13.50
2013,03,25,17,05,13.60
2013,03,25,17,06,13.60
2013,03,25,17,07,13.60
2013,03,25,17,08,13.70
2013,03,25,17,09,13.70
2013,03,25,17,10,13.80
2013,03,25,17,11,13.80
2013,03,25,17,12,13.80
2013,03,25,17,13,13.80
2013,03,25,17,14,13.90
2013,03,25,17,15,13.90
2013,03,25,17,16,14.00
2013,03,25,17,17,14.00
2013,03,25,17,18,14.10
2013,03,25,17,19,14.10
2013,03,25,17,20,14.20
2013,03,25,17,21,14.20
2013,03,25,17,22,14.20
2013,03,25,17,23,14.10
2013,03,25,17,24,14.00
2013,03,25,17,25,13.90
2013,03,25,17,26,13.90
2013,03,25,17,27,13.90
2013,03,25,17,28,13.90
2013,03,25,17,29,13.90
2013,03,25,17,30,13.90
2013,03,25,17,31,13.90
2013,03,25,17,32,13.80
2013,03,25,17,33,13.80
2013,03,25,17,34,13.80
2013,03,25,17,35,13.80
2013,03,25,17,36,13.80
2013,03,25,17,37,13.80
2013,03,25,17,38,13.80
2013,03,25,17,39,13.70
2013,03,25,17,40,13.60
2013,03,25,17,41,13.60
2013,03,25,17,42,13.50
2013,03,25,17,43,13.60
2013,03,25,17,44,13.60
2013,03,25,17,45,13.60
2013,03,25,17,46,13.60
2013,03,25,17,47,13.70